Вернуться в каталог

COSMOS 1375 DEB

АктивенLEO
NORAD 18560·DEBRIS·🇷🇺 Russia

Запущен Jun 6, 1982 с Plesetsk Cosmodrome

Loading…

Ближайшие Пролёты (ближайшие 24 часа)

TLE

СвежийSource: Space-Track

Эпоха: Sep 14, 2026, 14:17 UTC

1 18560U 82055BH  26257.59528045  .00000036  00000-0  13022-3 0  9990
2 18560  65.8297 240.5603 0043499 349.8418 113.2853 13.70080419950645

Отслеживайте COSMOS 1375 DEB в реальном времени с AllMySat

Download on the App Store